Location: Libas
(9.8833°N, 125.9833°E)
Time: 21:12:10
(UTC+00:00)

ALOS - Pass Details

Date: 27 October 2020
Orbit: 683 x 685 km, 97.9° (Epoch: 26 November)

Event Time Altitude Azimuth Distance (km) Brightness Sun altitude
Rises 19:25:56 0° 24° (NNE) 3,035 5.8 -29.8°
Reaches altitude 10° 19:28:18 10° 33° (NNE) 2,120 5.0 -29.2°
Maximum altitude 19:32:37 38° 101° (E) 1,036 3.6 -28.2°
Drops below altitude 10° 19:36:55 10° 169° (SSE) 2,122 5.0 -27.1°
Sets 19:39:17 0° 177° (S) 3,038 5.8 -26.5°
